Total_Precipitation_Accumulation
0.02 0.09 0.19 0.18 0.16 0.05 0.07 0.06 0.07 0.05 0.13 0.10 0.16 0.15 0.15 0.05 0.01 0.01 0.04 0.11 0.12 0.07 0.06 0.01 0.00 0.00 0.00 0.00 0.00 0.00 0.00 0.00 0.00 0.00 0.00 0.00 0.00 0.00 0.00 0.00 0.00 0.00 0.00
0.04 0.09 0.20 0.28 0.13 0.09 0.08 0.09 0.13 0.15 0.15 0.17 0.27 0.38 0.41 0.19 0.19 0.09 0.07 0.07 0.08 0.03 0.02 0.01 0.00 0.01 0.01 0.01 0.01 0.00 0.00 0.00 0.00 0.00 0.01 0.01 0.00 0.00 0.00 0.00 0.00 0.00 0.00
0.02 0.11 0.29 0.52 0.42 0.22 0.15 0.18 0.22 0.21 0.17 0.19 0.29 0.45 0.55 0.57 0.42 0.14 0.12 0.16 0.08 0.13 0.09 0.03 0.05 0.13 0.08 0.06 0.11 0.11 0.05 0.04 0.07 0.06 0.06 0.02 0.00 0.00 0.00 0.00 0.00 0.00 0.00
0.02 0.08 0.20 0.45 0.46 0.40 0.38 0.40 0.41 0.43 0.36 0.25 0.34 0.41 0.48 0.34 0.34 0.43 0.22 0.12 0.11 0.13 0.12 0.13 0.16 0.20 0.24 0.43 0.59 0.51 0.36 0.37 0.37 0.35 0.24 0.15 0.06 0.01 0.00 0.00 0.00 0.00 0.00
0.12 0.03 0.04 0.13 0.34 0.38 0.45 0.42 0.38 0.51 0.96 0.73 0.56 0.62 0.50 0.43 0.31 0.28 0.21 0.11 0.08 0.08 0.06 0.05 0.11 0.16 0.22 0.27 0.43 0.75 0.91 0.90 0.85 0.69 0.43 0.22 0.12 0.06 0.02 0.00 0.00 0.00 0.00
0.32 0.09 0.05 0.03 0.09 0.21 0.30 0.38 0.38 0.48 0.58 0.80 0.75 0.76 0.78 0.67 0.56 0.47 0.34 0.19 0.12 0.07 0.06 0.08 0.13 0.22 0.29 0.25 0.23 0.22 0.31 0.47 0.55 0.58 0.55 0.43 0.33 0.24 0.16 0.09 0.03 0.01 0.00
0.30 0.28 0.13 0.05 0.05 0.09 0.11 0.13 0.20 0.33 0.49 0.48 0.48 0.54 0.66 0.58 0.42 0.32 0.27 0.15 0.12 0.09 0.06 0.09 0.13 0.17 0.26 0.32 0.28 0.21 0.17 0.20 0.26 0.31 0.37 0.45 0.30 0.14 0.06 0.01 0.00 0.00 0.00
0.15 0.24 0.28 0.15 0.13 0.14 0.07 0.02 0.05 0.09 0.15 0.35 0.59 0.66 0.58 0.47 0.18 0.09 0.07 0.04 0.01 0.01 0.02 0.03 0.06 0.12 0.20 0.26 0.24 0.18 0.11 0.07 0.05 0.04 0.07 0.09 0.13 0.05 0.01 0.00 0.00 0.00 0.00
0.23 0.14 0.34 0.25 0.07 0.11 0.04 0.01 0.02 0.03 0.02 0.03 0.07 0.22 0.32 0.32 0.23 0.23 0.03 0.00 0.00 0.03 0.10 0.05 0.03 0.08 0.16 0.23 0.24 0.17 0.13 0.09 0.03 0.00 0.00 0.00 0.00 0.00 0.00 0.00 0.00 0.00 0.00
0.12 0.10 0.26 0.29 0.04 0.04 0.00 0.00 0.00 0.00 0.00 0.00 0.00 0.00 0.03 0.11 0.18 0.20 0.08 0.01 0.06 0.10 0.41 0.38 0.15 0.07 0.04 0.12 0.19 0.15 0.08 0.05 0.02 0.00 0.00 0.00 0.00 0.00 0.00 0.00 0.00 0.00 0.00
0.04 0.03 0.10 0.23 0.04 0.00 0.00 0.00 0.00 0.00 0.00 0.00 0.00 0.00 0.00 0.00 0.00 0.01 0.05 0.05 0.05 0.05 0.10 0.11 0.12 0.05 0.04 0.06 0.07 0.07 0.07 0.04 0.02 0.00 0.00 0.00 0.00 0.00 0.00 0.00 0.00 0.00 0.00
0.08 0.13 0.04 0.05 0.02 0.00 0.00 0.00 0.00 0.00 0.00 0.00 0.00 0.00 0.00 0.00 0.00 0.00 0.00 0.00 0.00 0.00 0.00 0.00 0.01 0.02 0.02 0.01 0.01 0.02 0.03 0.03 0.02 0.01 0.00 0.00 0.00 0.00 0.00 0.00 0.00 0.00 0.00
0.03 0.01 0.00 0.00 0.00 0.00 0.00 0.00 0.00 0.00 0.00 0.00 0.00 0.00 0.00 0.00 0.00 0.00 0.00 0.00 0.00 0.00 0.00 0.00 0.00 0.00 0.01 0.01 0.02 0.01 0.01 0.01 0.00 0.00 0.00 0.00 0.00 0.00 0.00 0.00 0.00 0.00 0.00
0.00 0.00 0.00 0.00 0.00 0.00 0.00 0.00 0.00 0.00 0.00 0.00 0.00 0.00 0.00 0.00 0.00 0.00 0.00 0.00 0.00 0.00 0.00 0.00 0.00 0.00 0.00 0.00 0.01 0.01 0.01 0.01 0.01 0.01 0.00 0.00 0.00 0.00 0.00 0.00 0.00 0.00 0.00
0.00 0.00 0.00 0.00 0.00 0.00 0.00 0.00 0.00 0.00 0.00 0.00 0.00 0.00 0.00 0.00 0.00 0.00 0.00 0.00 0.00 0.00 0.00 0.00 0.00 0.00 0.00 0.00 0.00 0.01 0.01 0.01 0.01 0.02 0.01 0.01 0.00 0.00 0.00 0.00 0.00 0.00 0.00
0.00 0.00 0.00 0.00 0.00 0.00 0.00 0.00 0.00 0.00 0.00 0.00 0.00 0.00 0.00 0.00 0.00 0.00 0.00 0.00 0.00 0.00 0.00 0.00 0.00 0.00 0.00 0.00 0.00 0.00 0.00 0.00 0.01 0.01 0.00 0.00 0.00 0.00 0.00 0.00 0.00 0.00 0.00
0.00 0.00 0.00 0.00 0.00 0.00 0.00 0.00 0.00 0.00 0.00 0.00 0.00 0.00 0.00 0.00 0.00 0.00 0.00 0.00 0.00 0.00 0.00 0.00 0.00 0.00 0.00 0.00 0.00 0.00 0.00 0.00 0.00 0.00 0.00 0.00 0.00 0.00 0.00 0.00 0.00 0.00 0.00
0.00 0.00 0.00 0.00 0.00 0.00 0.00 0.00 0.00 0.00 0.00 0.00 0.00 0.00 0.00 0.00 0.00 0.00 0.00 0.00 0.00 0.00 0.00 0.00 0.00 0.00 0.00 0.00 0.00 0.00 0.00 0.00 0.00 0.00 0.00 0.00 0.00 0.00 0.00 0.00 0.00 0.00 0.00
0.00 0.00 0.00 0.00 0.00 0.00 0.00 0.00 0.00 0.00 0.00 0.00 0.00 0.00 0.00 0.00 0.00 0.00 0.00 0.00 0.00 0.00 0.00 0.00 0.00 0.00 0.00 0.00 0.00 0.00 0.00 0.00 0.00 0.00 0.00 0.00 0.00 0.00 0.00 0.00 0.00 0.00 0.00
0.00 0.00 0.00 0.00 0.00 0.00 0.00 0.00 0.00 0.00 0.00 0.00 0.00 0.00 0.00 0.00 0.00 0.00 0.00 0.00 0.00 0.00 0.00 0.00 0.00 0.00 0.00 0.00 0.00 0.00 0.00 0.00 0.00 0.00 0.00 0.00 0.00 0.00 0.00 0.00 0.00 0.00 0.00
0.00 0.00 0.00 0.00 0.00 0.00 0.00 0.00 0.00 0.00 0.00 0.00 0.00 0.00 0.00 0.00 0.00 0.00 0.00 0.00 0.00 0.00 0.00 0.00 0.00 0.00 0.00 0.00 0.00 0.00 0.00 0.00 0.00 0.00 0.00 0.00 0.00 0.00 0.00 0.00 0.00 0.00 0.00
0.00 0.00 0.00 0.00 0.00 0.00 0.00 0.00 0.00 0.00 0.00 0.00 0.00 0.00 0.00 0.00 0.00 0.00 0.00 0.00 0.00 0.00 0.00 0.00 0.00 0.00 0.00 0.00 0.00 0.00 0.00 0.00 0.00 0.00 0.00 0.00 0.00 0.00 0.00 0.00 0.00 0.00 0.00
0.00 0.00 0.00 0.00 0.00 0.00 0.00 0.00 0.00 0.00 0.00 0.00 0.00 0.00 0.00 0.00 0.00 0.00 0.00 0.00 0.00 0.00 0.00 0.00 0.00 0.00 0.00 0.00 0.01 0.01 0.01 0.00 0.00 0.00 0.00 0.00 0.00 0.00 0.00 0.00 0.00 0.00 0.00
0.00 0.00 0.00 0.00 0.00 0.00 0.00 0.00 0.00 0.00 0.00 0.00 0.00 0.00 0.00 0.00 0.00 0.00 0.00 0.00 0.00 0.00 0.00 0.00 0.00 0.00 0.00 0.00 0.01 0.04 0.06 0.04 0.01 0.01 0.01 0.00 0.00 0.00 0.00 0.00 0.00 0.00 0.00
0.00 0.00 0.00 0.00 0.00 0.00 0.00 0.00 0.00 0.00 0.00 0.00 0.00 0.00 0.00 0.00 0.00 0.00 0.00 0.00 0.00 0.00 0.00 0.00 0.00 0.02 0.03 0.03 0.12 0.14 0.11 0.11 0.09 0.07 0.03 0.01 0.00 0.00 0.00 0.00 0.00 0.00 0.00
0.00 0.00 0.00 0.00 0.00 0.00 0.00 0.00 0.00 0.00 0.00 0.00 0.00 0.00 0.00 0.00 0.00 0.00 0.00 0.00 0.00 0.00 0.01 0.02 0.02 0.02 0.04 0.10 0.17 0.15 0.14 0.14 0.16 0.10 0.04 0.01 0.00 0.00 0.00 0.00 0.00 0.00 0.00